Location: Greenwich
(51.4790°N, 0.0090°E)
Time: 17:21:40
(UTC+01:00)

Vanguard 1 - All Passes

Search period start: 23 April 2024 00:00
Search period end: 03 May 2024 00:00
Orbit: 653 x 3825 km, 34.2° (Epoch: 22 April)

Date Brightness Start Highest point End Pass type
(mag) Time Alt. Az. Time Alt. Az. Time Alt. Az.
23 Apr - 02:23:52 10° S 02:38:29 21° SE 02:50:54 10° ESE visible
23 Apr - 04:42:09 10° SW 05:00:57 37° SSE 05:14:04 10° ESE visible
23 Apr - 07:06:06 10° WSW 07:23:10 39° S 07:33:41 10° SE daylight
23 Apr - 09:32:29 10° W 09:43:23 24° SW 09:50:37 10° SSE daylight
24 Apr - 02:41:35 10° SSW 02:58:19 26° SSE 03:12:07 10° E visible
24 Apr - 05:01:40 10° SW 05:21:02 40° S 05:34:15 10° ESE visible
24 Apr - 07:26:23 10° WSW 07:43:07 38° SSW 07:53:25 10° SE daylight
24 Apr - 09:53:27 10° W 10:02:52 20° SW 10:09:28 10° S daylight
25 Apr - 00:48:36 10° SSE 00:56:26 13° SE 01:03:58 10° ESE visible
25 Apr - 02:59:59 10° SSW 03:18:13 31° SSE 03:32:56 10° E visible
25 Apr - 05:21:26 10° SW 05:41:07 42° S 05:54:19 10° ESE daylight
25 Apr - 07:46:47 10° WSW 08:02:58 36° SSW 08:13:02 10° SE daylight
25 Apr - 10:14:53 10° WSW 10:22:14 16° SW 10:27:48 10° SSW daylight
26 Apr - 01:03:27 10° SSE 01:15:57 18° SE 01:27:43 10° ESE visible
26 Apr - 03:18:50 10° SSW 03:38:10 35° SSE 03:53:27 10° E visible
26 Apr - 05:41:25 10° WSW 06:01:11 43° S 06:14:17 10° ESE daylight
26 Apr - 08:07:19 10° W 08:22:43 33° SSW 08:32:28 10° SSE daylight
26 Apr - 10:37:30 10° WSW 10:41:28 12° SW 10:44:53 10° SSW daylight
27 Apr - 01:20:19 10° S 01:35:33 23° SE 01:49:42 10° E visible
27 Apr - 03:38:03 10° SW 03:58:11 39° SSE 04:13:47 10° ESE visible
27 Apr - 06:01:32 10° WSW 06:21:13 43° S 06:34:09 10° ESE daylight
27 Apr - 08:27:59 10° W 08:42:19 29° SSW 08:51:43 10° SSE daylight
28 Apr - 01:38:09 10° SSW 01:55:14 28° SE 02:10:55 10° E visible
28 Apr - 03:57:34 10° SW 04:18:14 42° SSE 04:33:59 10° ESE visible
28 Apr - 06:21:47 10° WSW 06:41:11 42° SSW 06:53:54 10° SE daylight
28 Apr - 08:48:52 10° W 09:01:49 25° SW 09:10:40 10° S daylight
28 Apr - 23:45:43 10° SSE 23:53:36 13° SE 00:01:35 10° ESE visible
29 Apr - 01:56:36 10° SSW 02:15:00 32° SSE 02:31:44 10° E visible
29 Apr - 04:17:18 10° SW 04:38:18 45° S 04:54:04 10° ESE visible
29 Apr - 06:42:09 10° WSW 07:01:04 40° SSW 07:13:32 10° SE daylight
29 Apr - 09:10:04 10° W 09:21:11 20° SW 09:29:12 10° S daylight
30 Apr - 00:00:46 10° SSE 00:12:56 18° SE 00:25:21 10° E visible
30 Apr - 02:15:28 10° SSW 02:34:50 37° SSE 02:52:17 10° E visible
30 Apr - 04:37:12 10° WSW 04:58:22 46° S 05:14:04 10° ESE visible
30 Apr - 07:02:37 10° W 07:20:51 37° SSW 07:32:59 10° SE daylight
30 Apr - 09:31:52 10° W 09:40:24 16° SW 09:47:03 10° SSW daylight
01 May - 00:17:43 10° S 00:32:19 23° SE 00:47:23 10° E visible
01 May - 02:34:40 10° SW 02:54:45 41° SSE 03:12:39 10° E visible
01 May - 04:57:16 10° WSW 05:18:25 46° S 05:33:57 10° ESE visible
01 May - 07:23:14 10° W 07:40:30 33° SSW 07:52:15 10° SSE daylight
01 May - 09:55:22 10° WSW 09:59:29 11° SW 10:03:08 10° SW daylight
02 May - 00:35:36 10° S 00:51:50 28° SE 01:08:40 10° E visible
02 May - 02:54:08 10° SW 03:14:45 44° SSE 03:32:52 10° ESE visible
02 May - 05:17:27 10° WSW 05:38:25 45° SSW 05:53:43 10° SE daylight
02 May - 07:44:01 10° W 08:00:02 29° SW 08:11:14 10° SSE daylight
02 May - 22:44:21 10° SE 22:50:44 12° ESE 22:57:28 10° ESE visible
